Weather History for Key West, FL

Change the Weather History Date:

Monday, March 4, 2013

  Actual Average Record
Temperature  
Mean Temperature 61 °F 72 °F  
Max Temperature 65 °F 77 °F 85 °F (1948)
Min Temperature 56 °F 67 °F 49 °F (1980)
Degree Days  
Heating Degree Days 4 0  
Month to date heating degree days 9 0  
Since 1 July heating degree days 21 66  
Cooling Degree Days 0 8  
Month to date cooling degree days 3 31  
Year to date cooling degree days 537 379  
Growing Degree Days 10 (Base 50)    
Moisture  
Dew Point 49 °F    
Average Humidity 68    
Maximum Humidity 80    
Minimum Humidity 56    
Precipitation  
Precipitation 0.00 in 0.07 in 1.06 in (1889)
Month to date precipitation 0.17 0.29  
Year to date precipitation 1.71 3.82  
Snow  
Snow 0.00 in - - ()
Month to date snowfall 0.0  
Since 1 July snowfall 0.0  
Snow Depth 0.00 in    
Sea Level Pressure  
Sea Level Pressure 30.19 in    
Wind  
Wind Speed 8 mph (NNE)    
Max Wind Speed 15 mph    
Max Gust Speed 20 mph    
Visibility 10 miles    
Events      
T = Trace of Precipitation, MM = Missing Value Source: NWS Daily Summary

Daily Weather History Graph

Daily Weather History Graph

Search for Another Location

Airport:

Trip Planner

Search our weather history database for the weather conditions in past years. The results will help you decide how hot, cold, wet, or windy it might be!

Date:

Astronomy

Mar. 04, 2013 Rise Set
Actual Time 6:46 AM EST 6:31 PM EST
Civil Twilight 6:23 AM EST 6:53 PM EST
Nautical Twilight 5:57 AM EST 7:20 PM EST
Astronomical Twilight 5:30 AM EST 7:46 PM EST
Moon 12:29 AM EST (3/4) 11:37 AM EST (3/4)
Length of Visible Light 12h 30m
Length of Day
11h 44m
Waning Gibbous, 52% of the Moon is Illuminated
Mar 4
Waning Gibbous
Mar 4
Last Quarter
Mar 11
New
Mar 19
First Quarter
Mar 27
Full

Hourly Weather History & Observations

Time (EST) Temp. Dew Point Humidity Pressure Visibility Wind Dir Wind Speed Gust Speed Precip Events Conditions
12:53 AM 62.1 °F 46.0 °F 56% 30.17 in 10.0 mi NNW 8.1 mph - N/A   Scattered Clouds
1:53 AM 62.1 °F 48.0 °F 60% 30.15 in 10.0 mi NNW 10.4 mph - N/A   Mostly Cloudy
2:53 AM 61.0 °F 48.0 °F 62% 30.14 in 10.0 mi NW 11.5 mph - N/A   Mostly Cloudy
3:53 AM 62.1 °F 46.9 °F 58% 30.15 in 10.0 mi NNW 11.5 mph - N/A   Overcast
4:53 AM 61.0 °F 46.9 °F 60% 30.16 in 10.0 mi NNW 11.5 mph 17.3 mph N/A   Scattered Clouds
5:53 AM 61.0 °F 46.9 °F 60% 30.17 in 10.0 mi NNW 9.2 mph - N/A   Mostly Cloudy
6:53 AM 61.0 °F 48.9 °F 64% 30.18 in 10.0 mi NNW 6.9 mph - N/A   Overcast
7:53 AM 62.1 °F 52.0 °F 70% 30.20 in 10.0 mi ENE 8.1 mph - N/A   Overcast
8:53 AM 60.1 °F 51.1 °F 72% 30.22 in 10.0 mi ENE 9.2 mph - N/A   Mostly Cloudy
9:00 AM 60.8 °F 51.8 °F 72% 30.22 in 10.0 mi ENE 6.9 mph - N/A   Overcast
9:53 AM 61.0 °F 50.0 °F 67% 30.24 in 10.0 mi ENE 10.4 mph - N/A   Scattered Clouds
10:01 AM 60.8 °F 50.0 °F 68% 30.24 in 10.0 mi ENE 8.1 mph - N/A   Mostly Cloudy
10:25 AM 60.8 °F 50.0 °F 68% 30.23 in 10.0 mi ENE 9.2 mph - N/A   Scattered Clouds
10:53 AM 62.1 °F 50.0 °F 65% 30.23 in 10.0 mi ENE 10.4 mph - N/A   Clear
11:53 AM 62.1 °F 50.0 °F 65% 30.22 in 10.0 mi NE 10.4 mph 16.1 mph N/A   Clear
12:53 PM 59.0 °F 50.0 °F 72% 30.19 in 10.0 mi NNE 9.2 mph - N/A   Clear
1:46 PM 64.4 °F 51.8 °F 64% 30.18 in 10.0 mi North 10.4 mph - N/A   Mostly Cloudy
1:53 PM 62.1 °F 50.0 °F 65% 30.18 in 10.0 mi North 8.1 mph - N/A   Scattered Clouds
2:53 PM 64.0 °F 51.1 °F 63% 30.16 in 10.0 mi North 10.4 mph - N/A   Clear
3:53 PM 64.0 °F 50.0 °F 60% 30.15 in 10.0 mi North 8.1 mph - N/A   Clear
4:53 PM 64.0 °F 50.0 °F 60% 30.15 in 10.0 mi NNW 5.8 mph - N/A   Clear
5:53 PM 63.0 °F 50.0 °F 63% 30.16 in 10.0 mi North 4.6 mph - N/A   Clear
6:53 PM 61.0 °F 50.0 °F 67% 30.17 in 10.0 mi North 3.5 mph - N/A   Clear
7:53 PM 60.1 °F 48.9 °F 67% 30.18 in 10.0 mi Calm Calm - N/A   Clear
8:53 PM 59.0 °F 48.9 °F 69% 30.20 in 10.0 mi Calm Calm - N/A   Clear
9:53 PM 57.9 °F 51.1 °F 78% 30.21 in 10.0 mi NE 3.5 mph - N/A   Clear
10:53 PM 59.0 °F 51.1 °F 75% 30.19 in 10.0 mi NNE 3.5 mph - N/A   Clear
11:53 PM 59.0 °F 51.1 °F 75% 30.18 in 10.0 mi NE 4.6 mph - N/A   Clear